Tributaries of Elbe river

river Ploučnice - water gauge Benešov nad Ploučnicí

Date and time (UTC) H (cm) Q (m3/s)
18. 2. 2019 12:00 89 5
18. 2. 2019 11:00 90 5
18. 2. 2019 10:00 90 5
18. 2. 2019 09:00 90 5
18. 2. 2019 08:00 91 5
18. 2. 2019 07:00 91 5
18. 2. 2019 06:00 91 5
18. 2. 2019 05:00 91 5
18. 2. 2019 04:00 91 5
18. 2. 2019 03:00 91 5
18. 2. 2019 02:00 91 5
18. 2. 2019 01:00 91 5
18. 2. 2019 00:00 91 5

H - vodni stav, Q - discharge

river Ohře - water gauge Louny

Date and time (UTC) H (cm) Q (m3/s)
18. 2. 2019 12:00 234 43
18. 2. 2019 11:00 234 43
18. 2. 2019 10:00 234 43
18. 2. 2019 09:00 234 43
18. 2. 2019 08:00 234 43
18. 2. 2019 07:00 234 43
18. 2. 2019 06:00 234 43
18. 2. 2019 05:00 233 42
18. 2. 2019 04:00 234 43
18. 2. 2019 03:00 234 43
18. 2. 2019 02:00 234 43
18. 2. 2019 01:00 234 43
18. 2. 2019 00:00 233 42

H - vodni stav, Q - discharge

Praha-Chuchle

Date and time (UTC) H (cm) Q (m3/s)
18. 2. 2019 12:00 65 127
18. 2. 2019 11:00 65 127
18. 2. 2019 10:00 64 123
18. 2. 2019 09:00 67 137
18. 2. 2019 08:00 69 146
18. 2. 2019 07:00 77 185
18. 2. 2019 06:00 79 195
18. 2. 2019 05:00 79 195
18. 2. 2019 04:00 79 195
18. 2. 2019 03:00 79 195
18. 2. 2019 02:00 79 195
18. 2. 2019 01:00 79 195
18. 2. 2019 00:00 79 195

H - vodni stav, Q - discharge
more information

river Jizera - water gauge Předměřice

Date and time (UTC) H (cm) Q (m3/s)
18. 2. 2019 12:00 168 -
18. 2. 2019 11:00 166 22
18. 2. 2019 10:00 166 22
18. 2. 2019 09:00 166 22
18. 2. 2019 08:00 166 22
18. 2. 2019 07:00 167 22
18. 2. 2019 06:00 167 22
18. 2. 2019 05:00 166 22
18. 2. 2019 04:00 166 22
18. 2. 2019 03:00 165 22
18. 2. 2019 02:00 164 21
18. 2. 2019 01:00 165 22
18. 2. 2019 00:00 166 22

H - vodni stav, Q - discharge

river Cidlina - water gauge Sány

Date and time (UTC) H (cm) Q (m3/s)
18. 2. 2019 12:00 62 -
18. 2. 2019 11:00 62 5
18. 2. 2019 10:00 61 5
18. 2. 2019 09:00 61 5
18. 2. 2019 08:00 61 5
18. 2. 2019 07:00 61 5
18. 2. 2019 06:00 62 5
18. 2. 2019 05:00 62 5
18. 2. 2019 04:00 62 5
18. 2. 2019 03:00 62 5
18. 2. 2019 02:00 63 6
18. 2. 2019 01:00 63 6
18. 2. 2019 00:00 63 6

H - vodni stav, Q - discharge

river Orlice - water gauge Týniště nad Orlicí

Date and time (UTC) H (cm) Q (m3/s)
18. 2. 2019 11:40 138 22
18. 2. 2019 11:00 139 22
18. 2. 2019 10:00 140 22
18. 2. 2019 09:00 141 22
18. 2. 2019 08:00 141 22
18. 2. 2019 07:00 140 22
18. 2. 2019 06:00 140 22
18. 2. 2019 05:00 140 22
18. 2. 2019 04:00 140 22
18. 2. 2019 03:00 140 22
18. 2. 2019 02:00 140 22
18. 2. 2019 01:00 140 22
18. 2. 2019 00:00 140 22
17. 2. 2019 23:00 141 22

H - vodni stav, Q - discharge
Source data
Labe Basin Vltava Basin ČHMÚ